Terminal Aerodrome Forecast
Issued by NWS Denver/Boulder, CO

Home | Current Version | Previous Version | Text Only | Print | Product List | Glossary On
Versions: 1 2 3 4 5 6 7 8 9 10 11 12 13 14 15 16 17 18 19 20 21 22 23 24 25 26 27 28 29 30 31 32 33 34 35 36 37 38 39 40 41 42 43 44 45 46 47 48 49 50
000
FTUS45 KBOU 280420 AAB
TAFDEN
TAF AMD
KDEN 280420Z 2804/2906 17010KT P6SM VCTS BKN080CB BKN150
     FM280530 21008KT P6SM FEW100 SCT200
     FM281500 VRB05KT P6SM SCT080 BKN150
     FM282100 11008KT P6SM SCT050 BKN090
      TEMPO 2821/2901 VRB15G30KT -TSRA BKN070CB
     FM290300 06008KT P6SM SCT070 BKN120=

USA.gov is the U.S. government's official web portal to all federal, state and local government web resources and services.